MXB8GK EDDM-EDDB

Flight info

Callsign MXB8GK
Flight time 0h 54m
Altitude 29000
Route AKINI1S AKINI Y104 MAMOR L132 RUDNO T203 TIVDA DCT ETVIS DCT NAVEK DCT GAVLI/N0423F300 T203 ATGUP ATGUP1R
Aircraft A320/M-SDE3FGHIRWY/LB1

Departure

Time 2026-05-06 18:11
Airport Munich Airport (EDDM)

Arrival

Time 2026-05-06 19:05
Airport Berlin Brandenburg Airport (EDDB)
Time Latitude Longitude Altitude Speed Heading
2026-05-06 17:28 48.35222 11.77696 1478 ft 0 kts 263°
2026-05-06 17:57 48.35224 11.77717 1451 ft 3 kts 263°
2026-05-06 17:58 48.35226 11.77747 1494 ft 3 kts 264°
2026-05-06 17:58 48.35225 11.77769 1474 ft 3 kts 318°
2026-05-06 17:58 48.35213 11.77780 1471 ft 1 kts 353°
2026-05-06 17:58 48.35200 11.77782 1471 ft 2 kts 353°
2026-05-06 17:59 48.35193 11.77783 1478 ft 0 kts 353°
2026-05-06 18:02 48.35199 11.77782 1485 ft 4 kts 353°
2026-05-06 18:02 48.35252 11.77773 1482 ft 10 kts 353°
2026-05-06 18:03 48.35329 11.77760 1485 ft 14 kts 353°
2026-05-06 18:03 48.35433 11.77742 1485 ft 16 kts 353°
2026-05-06 18:03 48.35553 11.77720 1479 ft 19 kts 353°
2026-05-06 18:03 48.35665 11.77701 1477 ft 15 kts 354°
2026-05-06 18:04 48.35747 11.77694 1485 ft 12 kts 13°
2026-05-06 18:04 48.35777 11.77796 1481 ft 12 kts 83°
2026-05-06 18:04 48.35834 11.77860 1481 ft 10 kts
2026-05-06 18:04 48.35841 11.77859 1483 ft 1 kts 358°
2026-05-06 18:05 48.35906 11.77849 1478 ft 16 kts 354°
2026-05-06 18:05 48.35986 11.77929 1483 ft 16 kts 83°
2026-05-06 18:05 48.35998 11.78087 1483 ft 15 kts 83°
2026-05-06 18:05 48.36010 11.78244 1485 ft 16 kts 83°
2026-05-06 18:06 48.36023 11.78411 1476 ft 16 kts 82°
2026-05-06 18:06 48.36101 11.78487 1481 ft 13 kts 25°
2026-05-06 18:06 48.36147 11.78582 1485 ft 12 kts 83°
2026-05-06 18:06 48.36156 11.78733 1485 ft 17 kts 83°
2026-05-06 18:07 48.36170 11.78907 1480 ft 16 kts 83°
2026-05-06 18:07 48.36182 11.79074 1485 ft 16 kts 84°
2026-05-06 18:07 48.36195 11.79230 1480 ft 14 kts 83°
2026-05-06 18:07 48.36207 11.79383 1485 ft 15 kts 83°
2026-05-06 18:08 48.36219 11.79539 1483 ft 15 kts 84°
2026-05-06 18:08 48.36230 11.79692 1485 ft 15 kts 83°
2026-05-06 18:08 48.36243 11.79858 1485 ft 18 kts 84°
2026-05-06 18:08 48.36258 11.80060 1485 ft 19 kts 82°
2026-05-06 18:09 48.36274 11.80251 1483 ft 18 kts 83°
2026-05-06 18:09 48.36286 11.80416 1485 ft 9 kts 83°
2026-05-06 18:09 48.36318 11.80511 1482 ft 14 kts 22°
2026-05-06 18:09 48.36384 11.80421 1476 ft 15 kts 292°
2026-05-06 18:10 48.36427 11.80273 1476 ft 16 kts 292°
2026-05-06 18:10 48.36471 11.80121 1475 ft 16 kts 294°
2026-05-06 18:10 48.36526 11.80001 1472 ft 9 kts 272°
2026-05-06 18:10 48.36524 11.79980 1485 ft 0 kts 263°
2026-05-06 18:11 48.36507 11.79762 1482 ft 56 kts 264°
2026-05-06 18:11 48.36466 11.79221 1473 ft 98 kts 263°
2026-05-06 18:11 48.36332 11.77425 1619 ft 152 kts 263°
2026-05-06 18:11 48.36215 11.75822 2249 ft 156 kts 262°
2026-05-06 18:12 48.36095 11.74245 3160 ft 147 kts 263°
2026-05-06 18:12 48.35974 11.72694 3803 ft 158 kts 264°
2026-05-06 18:12 48.35835 11.70941 4114 ft 180 kts 263°
2026-05-06 18:12 48.35871 11.68933 4386 ft 208 kts 283°
2026-05-06 18:13 48.36567 11.66990 5151 ft 216 kts 307°
2026-05-06 18:13 48.37777 11.65571 5964 ft 230 kts 330°
2026-05-06 18:13 48.39385 11.65001 6617 ft 247 kts 345°
2026-05-06 18:13 48.41158 11.64530 6985 ft 269 kts 343°
2026-05-06 18:14 48.43037 11.63966 7636 ft 280 kts 343°
2026-05-06 18:14 48.45004 11.63618 8374 ft 293 kts 357°
2026-05-06 18:14 48.47037 11.64167 9136 ft 306 kts 17°
2026-05-06 18:14 48.48921 11.65742 9902 ft 315 kts 38°
2026-05-06 18:15 48.50389 11.68159 10785 ft 312 kts 54°
2026-05-06 18:15 48.51651 11.70790 11528 ft 315 kts 54°
2026-05-06 18:15 48.52946 11.73473 12285 ft 318 kts 54°
2026-05-06 18:15 48.54258 11.76194 13005 ft 323 kts 55°
2026-05-06 18:16 48.55465 11.78711 13618 ft 328 kts 56°
2026-05-06 18:16 48.56794 11.81542 14242 ft 332 kts 57°
2026-05-06 18:16 48.58108 11.84426 14901 ft 334 kts 57°
2026-05-06 18:16 48.59386 11.87381 15564 ft 337 kts 57°
2026-05-06 18:17 48.60521 11.89825 16085 ft 341 kts 55°
2026-05-06 18:17 48.61981 11.92745 16719 ft 345 kts 53°
2026-05-06 18:17 48.63468 11.95622 17349 ft 349 kts 53°
2026-05-06 18:17 48.64962 11.98548 17971 ft 353 kts 54°
2026-05-06 18:18 48.66423 12.01498 18519 ft 357 kts 54°
2026-05-06 18:18 48.67891 12.04532 19089 ft 359 kts 55°
2026-05-06 18:18 48.69489 12.07464 19634 ft 364 kts 44°
2026-05-06 18:18 48.71479 12.09854 20139 ft 367 kts 31°
2026-05-06 18:19 48.73762 12.11597 20663 ft 369 kts 21°
2026-05-06 18:19 48.75998 12.13053 21159 ft 373 kts 22°
2026-05-06 18:19 48.78399 12.14721 21350 ft 388 kts 24°
2026-05-06 18:19 48.80800 12.16468 21483 ft 402 kts 25°
2026-05-06 18:20 48.83354 12.18380 21617 ft 416 kts 25°
2026-05-06 18:20 48.85985 12.20338 21899 ft 426 kts 25°
2026-05-06 18:20 48.88669 12.22310 22355 ft 431 kts 24°
2026-05-06 18:20 48.91335 12.24227 22797 ft 435 kts 24°
2026-05-06 18:21 48.94056 12.26140 23257 ft 439 kts 23°
2026-05-06 18:21 48.96864 12.27855 23642 ft 441 kts 19°
2026-05-06 18:21 48.99402 12.29279 23983 ft 444 kts 18°
2026-05-06 18:21 49.02164 12.30773 24349 ft 446 kts 18°
2026-05-06 18:22 49.05079 12.32319 24725 ft 449 kts 17°
2026-05-06 18:22 49.08035 12.33881 25094 ft 452 kts 17°
2026-05-06 18:22 49.10004 12.34927 25358 ft 453 kts 17°
2026-05-06 18:22 49.12989 12.36529 25717 ft 456 kts 18°
2026-05-06 18:23 49.15919 12.38121 26062 ft 459 kts 18°
2026-05-06 18:23 49.18936 12.39775 26389 ft 462 kts 18°
2026-05-06 18:23 49.21966 12.41446 26724 ft 465 kts 18°
2026-05-06 18:23 49.26006 12.43673 27101 ft 467 kts 18°
2026-05-06 18:24 49.28064 12.44804 27275 ft 469 kts 18°
2026-05-06 18:24 49.31148 12.46495 27550 ft 472 kts 18°
2026-05-06 18:24 49.34247 12.48196 27832 ft 476 kts 18°
2026-05-06 18:24 49.37330 12.49891 28128 ft 479 kts 18°
2026-05-06 18:25 49.40478 12.51619 28419 ft 482 kts 18°
2026-05-06 18:25 49.43646 12.53360 28714 ft 485 kts 18°
2026-05-06 18:25 49.46828 12.55113 29011 ft 487 kts 18°
2026-05-06 18:25 49.50028 12.56883 29284 ft 490 kts 18°
2026-05-06 18:26 49.53224 12.58656 29582 ft 492 kts 18°
2026-05-06 18:26 49.56447 12.60446 29736 ft 490 kts 18°
2026-05-06 18:26 49.59611 12.62208 29758 ft 478 kts 18°
2026-05-06 18:26 49.62729 12.63944 29758 ft 474 kts 18°
2026-05-06 18:27 49.68906 12.67385 29749 ft 472 kts 18°
2026-05-06 18:27 49.75072 12.70827 29753 ft 470 kts 18°
2026-05-06 18:28 49.81175 12.74252 29759 ft 469 kts 18°
2026-05-06 18:28 49.87302 12.77705 29757 ft 468 kts 18°
2026-05-06 18:29 49.93426 12.81151 29763 ft 468 kts 18°
2026-05-06 18:29 49.99547 12.84596 29783 ft 467 kts 18°
2026-05-06 18:30 50.05654 12.88048 29745 ft 467 kts 17°
2026-05-06 18:30 50.11759 12.91515 29767 ft 467 kts 18°
2026-05-06 18:31 50.17815 12.94982 29777 ft 466 kts 18°
2026-05-06 18:31 50.23903 12.98449 29786 ft 465 kts 16°
2026-05-06 18:32 50.30070 13.01464 29788 ft 464 kts 13°
2026-05-06 18:32 50.36283 13.04163 29779 ft 463 kts 12°
2026-05-06 18:33 50.42471 13.06905 29771 ft 463 kts 13°
2026-05-06 18:33 50.48609 13.09760 29759 ft 463 kts 14°
2026-05-06 18:34 50.54677 13.12621 29755 ft 463 kts 14°
2026-05-06 18:34 50.60726 13.15453 29766 ft 463 kts 14°
2026-05-06 18:35 50.66905 13.18342 29772 ft 463 kts 14°
2026-05-06 18:35 50.72954 13.21167 29777 ft 462 kts 14°
2026-05-06 18:36 50.78710 13.23875 29779 ft 462 kts 14°
2026-05-06 18:36 50.84830 13.26765 29781 ft 462 kts 14°
2026-05-06 18:37 50.90947 13.29662 29783 ft 462 kts 14°
2026-05-06 18:37 50.96677 13.32379 29792 ft 461 kts 14°
2026-05-06 18:38 51.02912 13.35334 29788 ft 477 kts 14°
2026-05-06 18:38 51.09227 13.38340 29780 ft 480 kts 14°
2026-05-06 18:39 51.12360 13.39845 29406 ft 462 kts 15°
2026-05-06 18:39 51.15391 13.41305 28673 ft 453 kts 15°
2026-05-06 18:39 51.18393 13.42749 27875 ft 445 kts 15°
2026-05-06 18:40 51.23801 13.45345 26334 ft 433 kts 15°
2026-05-06 18:40 51.26575 13.46675 25555 ft 428 kts 15°
2026-05-06 18:40 51.29406 13.48034 24798 ft 423 kts 15°
2026-05-06 18:40 51.32172 13.49365 24060 ft 418 kts 15°
2026-05-06 18:41 51.34588 13.50533 23434 ft 413 kts 15°
2026-05-06 18:41 51.37335 13.51862 22648 ft 410 kts 15°
2026-05-06 18:41 51.40052 13.53178 22085 ft 406 kts 15°
2026-05-06 18:41 51.42710 13.54466 21547 ft 402 kts 15°
2026-05-06 18:42 51.44615 13.55390 21154 ft 399 kts 15°
2026-05-06 18:42 51.47250 13.56668 20450 ft 393 kts 15°
2026-05-06 18:42 51.49857 13.57933 19983 ft 392 kts 15°
2026-05-06 18:42 51.52458 13.59201 19683 ft 387 kts 15°
2026-05-06 18:43 51.55021 13.60453 19028 ft 384 kts 15°
2026-05-06 18:43 51.57551 13.61687 18415 ft 380 kts 15°
2026-05-06 18:43 51.60000 13.62880 17788 ft 376 kts 15°
2026-05-06 18:43 51.62385 13.64044 17184 ft 374 kts 15°
2026-05-06 18:44 51.64862 13.65255 16910 ft 372 kts 15°
2026-05-06 18:44 51.67326 13.66464 16526 ft 368 kts 15°
2026-05-06 18:44 51.69774 13.67606 16060 ft 365 kts
2026-05-06 18:44 51.72148 13.67876 15572 ft 356 kts 352°
2026-05-06 18:45 51.74500 13.66947 15154 ft 343 kts 333°
2026-05-06 18:45 51.76501 13.64991 14621 ft 334 kts 317°
2026-05-06 18:45 51.78088 13.62811 14117 ft 332 kts 316°
2026-05-06 18:45 51.79838 13.60398 13573 ft 330 kts 316°
2026-05-06 18:46 51.81583 13.57999 12978 ft 327 kts 316°
2026-05-06 18:46 51.83290 13.55655 12535 ft 326 kts 316°
2026-05-06 18:46 51.85007 13.53294 12040 ft 322 kts 316°
2026-05-06 18:46 51.86709 13.50948 11515 ft 320 kts 316°
2026-05-06 18:47 51.87709 13.49570 11215 ft 318 kts 316°
2026-05-06 18:47 51.89105 13.47645 10779 ft 316 kts 316°
2026-05-06 18:47 51.90773 13.45344 10302 ft 314 kts 316°
2026-05-06 18:47 51.92432 13.43049 9999 ft 313 kts 316°
2026-05-06 18:48 51.94082 13.40768 9832 ft 308 kts 316°
2026-05-06 18:48 51.95191 13.39243 9829 ft 296 kts 316°
2026-05-06 18:48 51.96558 13.37370 9796 ft 290 kts 316°
2026-05-06 18:48 51.98062 13.35294 9761 ft 276 kts 316°
2026-05-06 18:49 51.99472 13.33345 9568 ft 258 kts 316°
2026-05-06 18:49 52.00796 13.31506 9137 ft 251 kts 316°
2026-05-06 18:49 52.02112 13.29671 8621 ft 247 kts 316°
2026-05-06 18:49 52.03408 13.27862 8090 ft 244 kts 316°
2026-05-06 18:50 52.04685 13.26077 7836 ft 243 kts 316°
2026-05-06 18:50 52.05853 13.24447 7809 ft 243 kts 316°
2026-05-06 18:50 52.07138 13.22647 7809 ft 244 kts 316°
2026-05-06 18:50 52.08422 13.20847 7809 ft 244 kts 316°
2026-05-06 18:51 52.09709 13.19046 7808 ft 244 kts 316°
2026-05-06 18:51 52.10999 13.17247 7809 ft 244 kts 316°
2026-05-06 18:51 52.12157 13.15624 7810 ft 244 kts 315°
2026-05-06 18:51 52.13280 13.13650 7817 ft 242 kts 303°
2026-05-06 18:52 52.14150 13.11323 7814 ft 240 kts 292°
2026-05-06 18:52 52.14725 13.08796 7808 ft 238 kts 282°
2026-05-06 18:52 52.14984 13.06145 7807 ft 236 kts 271°
2026-05-06 18:52 52.14918 13.03482 7808 ft 236 kts 260°
2026-05-06 18:53 52.14546 13.00892 7719 ft 234 kts 250°
2026-05-06 18:53 52.13960 12.98431 7358 ft 233 kts 248°
2026-05-06 18:53 52.13362 12.95993 7002 ft 232 kts 248°
2026-05-06 18:53 52.12765 12.93559 6583 ft 230 kts 248°
2026-05-06 18:54 52.12253 12.91474 6097 ft 229 kts 248°
2026-05-06 18:54 52.11671 12.89099 5529 ft 228 kts 249°
2026-05-06 18:54 52.11094 12.86743 5067 ft 223 kts 249°
2026-05-06 18:54 52.10515 12.84380 4964 ft 227 kts 249°
2026-05-06 18:55 52.09938 12.81978 4972 ft 230 kts 253°
2026-05-06 18:55 52.09853 12.79416 4967 ft 229 kts 284°
2026-05-06 18:55 52.10637 12.77206 4972 ft 230 kts 316°
2026-05-06 18:55 52.12059 12.76023 4973 ft 235 kts 349°
2026-05-06 18:56 52.13648 12.76226 4973 ft 241 kts 20°
2026-05-06 18:56 52.15094 12.77621 4966 ft 244 kts 42°
2026-05-06 18:56 52.16187 12.79736 4973 ft 246 kts 53°
2026-05-06 18:56 52.17167 12.82025 4976 ft 245 kts 54°
2026-05-06 18:57 52.18125 12.84325 4978 ft 246 kts 55°
2026-05-06 18:57 52.19070 12.86623 4980 ft 247 kts 55°
2026-05-06 18:57 52.20037 12.88967 4972 ft 246 kts 55°
2026-05-06 18:57 52.20974 12.91263 4972 ft 246 kts 58°
2026-05-06 18:58 52.21746 12.93758 4977 ft 248 kts 66°
2026-05-06 18:58 52.22389 12.96362 4977 ft 247 kts 68°
2026-05-06 18:58 52.23014 12.98969 4941 ft 247 kts 68°
2026-05-06 18:58 52.23642 13.01558 4613 ft 245 kts 67°
2026-05-06 18:59 52.24269 13.04138 4274 ft 244 kts 68°
2026-05-06 18:59 52.24890 13.06693 3963 ft 240 kts 68°
2026-05-06 18:59 52.25383 13.08709 3701 ft 238 kts 68°
2026-05-06 18:59 52.25953 13.11073 3417 ft 236 kts 68°
2026-05-06 19:00 52.26546 13.13529 3249 ft 227 kts 68°
2026-05-06 19:00 52.27100 13.15822 3125 ft 218 kts 68°
2026-05-06 19:00 52.27644 13.18075 3030 ft 208 kts 69°
2026-05-06 19:00 52.28160 13.20210 2994 ft 195 kts 69°
2026-05-06 19:01 52.28624 13.22136 3022 ft 177 kts 69°
2026-05-06 19:01 52.29066 13.23972 3005 ft 171 kts 69°
2026-05-06 19:01 52.29504 13.25795 2866 ft 169 kts 69°
2026-05-06 19:01 52.29931 13.27571 2683 ft 167 kts 69°
2026-05-06 19:02 52.30352 13.29320 2472 ft 164 kts 69°
2026-05-06 19:02 52.30763 13.31035 2255 ft 159 kts 69°
2026-05-06 19:02 52.31150 13.32649 2044 ft 147 kts 68°
2026-05-06 19:02 52.31492 13.34074 1862 ft 137 kts 68°
2026-05-06 19:03 52.31834 13.35502 1680 ft 134 kts 68°
2026-05-06 19:03 52.32172 13.36917 1499 ft 136 kts 69°
2026-05-06 19:03 52.32514 13.38347 1324 ft 135 kts 68°
2026-05-06 19:03 52.32857 13.39779 1123 ft 135 kts 69°
2026-05-06 19:04 52.33195 13.41202 920 ft 134 kts 68°
2026-05-06 19:04 52.33531 13.42592 729 ft 133 kts 69°
2026-05-06 19:04 52.33867 13.43991 584 ft 132 kts 68°
2026-05-06 19:04 52.34204 13.45393 374 ft 131 kts 68°
2026-05-06 19:05 52.34521 13.46750 212 ft 128 kts 69°
2026-05-06 19:05 52.34828 13.48051 165 ft 115 kts 69°
2026-05-06 19:05 52.35073 13.49075 154 ft 74 kts 68°
2026-05-06 19:05 52.35199 13.49593 154 ft 24 kts 69°
2026-05-06 19:06 52.35253 13.49788 154 ft 21 kts 61°
2026-05-06 19:06 52.35353 13.49974 154 ft 6 kts 40°
2026-05-06 19:06 52.35364 13.49988 154 ft 7 kts 34°
2026-05-06 19:06 52.35434 13.50073 154 ft 15 kts 39°
2026-05-06 19:07 52.35493 13.50150 154 ft 11 kts 39°
2026-05-06 19:07 52.35559 13.50236 154 ft 13 kts 39°
2026-05-06 19:07 52.35617 13.50359 154 ft 15 kts 66°
2026-05-06 19:07 52.35653 13.50523 154 ft 16 kts 70°
2026-05-06 19:08 52.35695 13.50706 154 ft 17 kts 69°
2026-05-06 19:08 52.35722 13.50799 154 ft 11 kts 51°
2026-05-06 19:08 52.35802 13.50802 154 ft 14 kts 339°
2026-05-06 19:08 52.35895 13.50748 154 ft 15 kts 339°
2026-05-06 19:09 52.35999 13.50683 155 ft 17 kts 338°
2026-05-06 19:09 52.36107 13.50614 155 ft 15 kts 338°
2026-05-06 19:09 52.36204 13.50553 157 ft 14 kts 339°
2026-05-06 19:09 52.36252 13.50530 155 ft 5 kts 10°
2026-05-06 19:10 52.36263 13.50569 155 ft 3 kts 73°
2026-05-06 19:10 52.36270 13.50598 155 ft 2 kts 69°
2026-05-06 19:10 52.36274 13.50615 155 ft 1 kts 69°
2026-05-06 19:10 52.36277 13.50627 155 ft 2 kts 69°
2026-05-06 19:11 52.36281 13.50644 155 ft 1 kts 68°
2026-05-06 19:11 52.36284 13.50657 155 ft 0 kts 69°
2026-05-06 19:11 52.36284 13.50659 155 ft 0 kts 69°